Location: Boiro
(42.6475°N, 8.8834°W)
Time: 02:34:46
(UTC+01:00)

Explorer 7 - Pass Details

Date: 02 December 2021
Orbit: 483 x 674 km, 50.3° (Epoch: 23 January)

Event Time Altitude Azimuth Distance (km) Brightness Sun altitude
Rises 06:03:59 0° 183° (S) 2,857 - -29.3°
Exits shadow 06:05:11 - 175° (S) 2,497 10.3 -29.1°
Reaches altitude 10° 06:07:49 10° 150° (SSE) 1,906 9.9 -28.6°
Maximum altitude 06:09:17 12° 130° (SE) 1,787 10.0 -28.3°
Drops below altitude 10° 06:10:44 10° 110° (ESE) 1,868 10.4 -28.1°
Sets 06:14:22 0° 77° (ENE) 2,715 11.5 -27.4°
